Hourly Data Report for July 18, 2021

CAMBRIDGE BAY A
NUNAVUT
Current Station Operator: NAVCAN

69°06'29.000" N
105°08'14.000" W
31.10 m
2400601
71925
YCB

Download Data

Hourly Data (July 2021)
Hourly Data Report for July 18, 2021
TIME
LST
Temp Definition
°C
Dew Point Definition
°C
Rel Hum Definition
%
Precip. Amount Definition
mm

Wind Dir Definition
10's deg

Wind Spd Definition
km/h
Visibility Definition
km
Stn Press Definition
kPa
Hmdx Definition


Wind Chill Definition


Weather Definition


00:00 6.1 3.5 83   19 21 24.1 101.20     LegendNANA
01:00 5.9 2.5 79   28 10 24.1 101.21     LegendNANA
02:00 5.6 2.6 81   23 4 24.1 101.18     Mostly Cloudy
03:00 6.5 3.5 81   23 8 24.1 101.12     LegendNANA
04:00 5.8 2.6 80   25 19 24.1 101.09     LegendNANA
05:00 5.3 1.4 76   26 25 24.1 101.10     Mostly Cloudy
06:00 5.9 2.5 78   27 23 24.1 101.10     LegendNANA
07:00 7.2 3.8 79   26 22 24.1 101.09     LegendNANA
08:00 8.2 4.2 76   27 22 24.1 101.12     Mostly Cloudy
09:00 8.0 3.7 74   25 21 24.1 101.14     LegendNANA
10:00 7.7 4.0 77   23 20 24.1 101.14     LegendNANA
11:00 8.2 3.9 74   25 20 24.1 101.16     Mostly Cloudy
12:00 10.2 4.3 67   26 21 24.1 101.17     LegendNANA
13:00 11.6 4.8 63   27 23 24.1 101.15     LegendNANA
14:00 13.8 5.9 59   26 29 24.1 101.14     Mainly Clear
15:00 12.3 5.1 61   26 26 24.1 101.13     LegendNANA
16:00 12.7 4.3 56   27 28 24.1 101.12     LegendNANA
17:00 12.0 3.9 57   27 23 24.1 101.11     Mainly Clear
18:00 11.2 3.8 60   27 22 24.1 101.07     LegendNANA
19:00 11.2 4.0 61   27 28 24.1 101.04     LegendNANA
20:00 8.5 3.1 68   24 19 24.1 101.02     Mainly Clear
21:00 7.1 2.6 73   22 9 24.1 101.00     LegendNANA
22:00 6.8 2.9 76   25 9 24.1 100.95     LegendNANA
23:00 7.2 3.0 75   25 10 24.1 100.89     Mainly Clear

Notes on Data Quality.

Legend

  • E = Estimated
  • M = Missing
  • NA = Not Available*
  • [empty] = Indicates an unobserved value
Date modified: